This is the latest recevied weather packets stored in our database for station/object AB0TJ. If no packets are shown the sender has not sent any weather packets the latest 10 day(s).
| Time | Temp. | Humidity | Pressure | Rain* | Wind** | Luminosity | Snow |
|---|---|---|---|---|---|---|---|
| 1777937129 | 22.78° C | 33% | 1007.5 hPa | 0 mm | - | 208 W/m² | - |
| 1777936539 | 22.78° C | 31% | 1007.7 hPa | 0 mm | - | 213 W/m² | - |
| 1777935949 | 22.78° C | 32% | 1007.6 hPa | 0 mm | - | 220 W/m² | - |
| 1777935419 | 22.22° C | 34% | 1007.4 hPa | 0 mm | - | 291 W/m² | - |
| 1777934926 | 22.22° C | 35% | 1007.6 hPa | 0 mm | - | 263 W/m² | - |
| 1777934419 | 22.22° C | 34% | 1007.5 hPa | 0 mm | - | 226 W/m² | - |
| 1777933844 | 21.67° C | 34% | 1007.6 hPa | 0 mm | - | 255 W/m² | - |
| 1777933289 | 22.22° C | 34% | 1007.8 hPa | 0 mm | - | 214 W/m² | - |
| 1777932749 | 22.22° C | 34% | 1007.6 hPa | 0 mm | - | 303 W/m² | - |
| 1777932233 | 22.22° C | 34% | 1007.9 hPa | 0 mm | - | 322 W/m² | - |
| 1777931642 | 22.22° C | 33% | 1007.9 hPa | 0 mm | - | 229 W/m² | - |
| 1777931159 | 22.22° C | 33% | 1008.1 hPa | 0 mm | - | 166 W/m² | - |
| 1777930579 | 22.78° C | 36% | 1008.3 hPa | 0 mm | - | 388 W/m² | - |
| 1777930053 | 22.78° C | 32% | 1008.4 hPa | 0 mm | - | 307 W/m² | - |
| 1777929464 | 22.78° C | 31% | 1008.6 hPa | 0 mm | - | 160 W/m² | - |
| 1777929016 | 22.78° C | 31% | 1008.4 hPa | 0 mm | - | 205 W/m² | - |
| 1777928983 | 22.78° C | 31% | 1008.4 hPa | 0 mm | - | 205 W/m² | - |
| 1777928419 | 23.33° C | 32% | 1008.3 hPa | 0 mm | - | 282 W/m² | - |
| 1777927849 | 23.33° C | 32% | 1008.5 hPa | 0 mm | - | 297 W/m² | - |
| 1777927294 | 22.78° C | 31% | 1008.5 hPa | 0 mm | - | 513 W/m² | - |
| 1777926799 | 22.78° C | 30% | 1008.8 hPa | 0 mm | - | 691 W/m² | - |
| 1777926249 | 22.22° C | 33% | 1008.8 hPa | 0 mm | - | 784 W/m² | - |
| 1777925719 | 22.22° C | 34% | 1008.9 hPa | 0 mm | - | 879 W/m² | - |
| 1777925159 | 21.67° C | 35% | 1009 hPa | 0 mm | - | 862 W/m² | - |
| 1777924659 | 21.11° C | 34% | 1009.4 hPa | 0 mm | - | 775 W/m² | - |
* Rain latest hour (hover to see other rain measurements)
** Current wind speed in m/s (hover to see current wind gust speed)